Linden, WI

5:31 PM CST on February 08, 2016 (GMT -0600)
Iowa County

Weather History for KMRJ - May, 2013

Change the Weather History Date:

Tuesday, May 28, 2013

  Actual Average (KLNR) Record (KLNR)
Temperature  
Mean Temperature 62 °F -  
Max Temperature 71 °F 68 °F 91 °F (2006)
Min Temperature 53 °F 48 °F 35 °F (2008)
Degree Days  
Heating Degree Days 3    
Growing Degree Days 12 (Base 50)    
Moisture  
Dew Point 60 °F    
Average Humidity 91    
Maximum Humidity 94    
Minimum Humidity 78    
Precipitation  
Precipitation 0.26 in - - ()
Sea Level Pressure  
Sea Level Pressure 29.76 in    
Wind  
Wind Speed 7 mph (SE)    
Max Wind Speed 13 mph    
Max Gust Speed -    
Visibility 4 miles    
Events Fog , Rain    
Averages and records for this station are not official NWS values.
T = Trace of Precipitation, MM = Missing Value Source: NWS Daily Summary

Daily Weather History Graph

Daily Weather History Graph

Search for Another Location

Airport or City:

Trip Planner

Search our weather history database for the weather conditions in past years. The results will help you decide how hot, cold, wet, or windy it might be!

Date:

Astronomy

May. 28, 2013 Rise Set
Actual Time 5:27 AM CDT 8:30 PM CDT
Civil Twilight 4:53 AM CDT 9:04 PM CDT
Nautical Twilight 4:09 AM CDT 9:47 PM CDT
Astronomical Twilight 3:18 AM CDT 10:39 PM CDT
Moon 11:50 PM CDT (5/28) 9:17 AM CDT (5/28)
Length of Visible Light 16h 11m
Length of Day
15h 03m
Waning Gibbous, 82% of the Moon is Illuminated
May 28
Waning Gibbous
May 31
Last Quarter
Jun 8
New
Jun 16
First Quarter
Jun 23
Full

Hourly Weather History & Observations

Time (CDT) Temp. Dew Point Humidity Pressure Visibility Wind Dir Wind Speed Gust Speed Precip Events Conditions
12:15 AM 53.6 °F 51.8 °F 94% 29.85 in 2.0 mi East 11.5 mph - N/A   Overcast
12:35 AM 53.6 °F 51.8 °F 94% 29.84 in 1.2 mi East 10.4 mph - N/A   Overcast
12:55 AM 53.6 °F 51.8 °F 94% 29.83 in 1.0 mi East 11.5 mph - N/A   Overcast
1:15 AM 53.6 °F 51.8 °F 94% 29.82 in 0.8 mi East 9.2 mph - N/A   Overcast
1:35 AM 53.6 °F 51.8 °F 94% 29.80 in 0.8 mi East 8.1 mph - N/A   Overcast
1:55 AM 53.6 °F 51.8 °F 94% 29.80 in 0.5 mi East 8.1 mph - N/A Fog Fog
2:15 AM 53.6 °F 51.8 °F 94% 29.80 in 0.5 mi East 6.9 mph - N/A Fog Fog
2:35 AM 53.6 °F 51.8 °F 94% 29.79 in 0.5 mi East 6.9 mph - N/A Fog Fog
2:55 AM 53.6 °F 51.8 °F 94% 29.78 in 0.5 mi East 9.2 mph - N/A Fog Fog
3:15 AM 53.6 °F 51.8 °F 94% 29.79 in 0.5 mi East 9.2 mph - N/A Fog Fog
3:35 AM 53.6 °F 51.8 °F 94% 29.78 in 1.5 mi East 9.2 mph - N/A Rain Light Rain
3:55 AM 53.6 °F 51.8 °F 94% 29.77 in 2.0 mi ENE 10.4 mph - N/A   Overcast
4:15 AM 53.6 °F 51.8 °F 94% 29.76 in 3.0 mi East 9.2 mph - N/A Rain Light Rain
4:35 AM 53.6 °F 51.8 °F 94% 29.75 in 4.0 mi East 10.4 mph - 0.01 in Rain Light Rain
4:55 AM 53.6 °F 51.8 °F 94% 29.75 in 4.0 mi East 8.1 mph - 0.01 in Rain Light Rain
5:15 AM 53.6 °F 51.8 °F 94% 29.77 in 4.0 mi NNE 3.5 mph - 0.04 in Rain Rain
5:35 AM 53.6 °F 51.8 °F 94% 29.77 in 4.0 mi North 5.8 mph - 0.09 in Rain Heavy Rain
5:55 AM 53.6 °F 51.8 °F 94% 29.73 in 3.0 mi ENE 11.5 mph - 0.14 in Rain Rain
6:15 AM 53.6 °F 51.8 °F 94% 29.75 in 7.0 mi ENE 12.7 mph - 0.01 in Rain Light Rain
6:35 AM 53.6 °F 51.8 °F 94% 29.76 in 10.0 mi East 8.1 mph - 0.01 in Rain Light Rain
6:55 AM 53.6 °F 51.8 °F 94% 29.75 in 10.0 mi East 11.5 mph - 0.01 in Rain Light Rain
7:15 AM 55.4 °F 51.8 °F 88% 29.76 in 7.0 mi East 6.9 mph - 0.02 in Rain Rain
7:35 AM 55.4 °F 53.6 °F 94% 29.75 in 5.0 mi ESE 6.9 mph - 0.05 in Rain Rain
7:55 AM 55.4 °F 53.6 °F 94% 29.73 in 7.0 mi East 9.2 mph - 0.07 in Rain Light Rain
8:15 AM 55.4 °F 53.6 °F 94% 29.73 in 10.0 mi East 8.1 mph - N/A Rain Light Rain
8:35 AM 55.4 °F 53.6 °F 94% 29.73 in 10.0 mi ESE 5.8 mph - 0.01 in   Overcast
8:55 AM 57.2 °F 55.4 °F 94% 29.73 in 10.0 mi ESE 5.8 mph - 0.01 in Rain Light Rain
9:15 AM 59.0 °F 55.4 °F 88% 29.73 in 10.0 mi ESE 5.8 mph - N/A   Overcast
9:35 AM 60.8 °F 57.2 °F 88% 29.73 in 7.0 mi ESE 4.6 mph - N/A   Overcast
9:55 AM 60.8 °F 59.0 °F 94% 29.73 in 5.0 mi ESE 5.8 mph - N/A   Overcast
10:15 AM 60.8 °F 59.0 °F 94% 29.73 in 5.0 mi SE 3.5 mph - N/A   Overcast
10:35 AM 62.6 °F 60.8 °F 94% 29.74 in 5.0 mi Calm Calm - N/A   Overcast
10:55 AM 62.6 °F 60.8 °F 94% 29.73 in 10.0 mi South 3.5 mph - N/A   Overcast
11:15 AM 64.4 °F 62.6 °F 94% 29.74 in 7.0 mi SSE 4.6 mph - N/A   Overcast
11:35 AM 64.4 °F 62.6 °F 94% 29.74 in 7.0 mi SSE 4.6 mph - N/A   Overcast
11:55 AM 68.0 °F 62.6 °F 83% 29.74 in 10.0 mi South 4.6 mph - N/A   Overcast
12:15 PM 68.0 °F 62.6 °F 83% 29.74 in 10.0 mi South 4.6 mph - N/A   Overcast
12:35 PM 69.8 °F 62.6 °F 78% 29.74 in 10.0 mi SW 10.4 mph - N/A   Overcast
12:55 PM 69.8 °F 62.6 °F 78% 29.74 in 10.0 mi SSW 8.1 mph - N/A   Overcast
1:15 PM 69.8 °F 62.6 °F 78% 29.74 in 7.0 mi SSW 9.2 mph - N/A   Overcast
1:35 PM 68.0 °F 62.6 °F 83% 29.74 in 2.0 mi South 5.8 mph - 0.01 in Rain Light Rain
1:55 PM 68.0 °F 62.6 °F 83% 29.74 in 2.5 mi SSW 3.5 mph - 0.01 in Rain Light Rain
2:15 PM 68.0 °F 64.4 °F 88% 29.75 in 1.5 mi South 5.8 mph - N/A Rain Light Rain
2:35 PM 68.0 °F 64.4 °F 88% 29.75 in 2.0 mi South 4.6 mph - 0.01 in Rain Light Rain
2:55 PM 68.0 °F 64.4 °F 88% 29.75 in 1.8 mi SSW 4.6 mph - 0.01 in Rain Light Rain
3:15 PM 68.0 °F 64.4 °F 88% 29.75 in 1.8 mi South 4.6 mph - N/A   Overcast
3:35 PM 68.0 °F 64.4 °F 88% 29.75 in 1.5 mi South 3.5 mph - N/A Rain Light Rain
3:55 PM 68.0 °F 64.4 °F 88% 29.74 in 1.8 mi Calm Calm - N/A   Overcast
4:15 PM 68.0 °F 64.4 °F 88% 29.75 in 2.0 mi SSW 3.5 mph - N/A   Overcast
4:35 PM 68.0 °F 64.4 °F 88% 29.75 in 3.0 mi South 3.5 mph - N/A   Overcast
4:55 PM 69.8 °F 66.2 °F 88% 29.75 in 4.0 mi SW 4.6 mph - N/A   Overcast
5:15 PM 69.8 °F 66.2 °F 88% 29.74 in 5.0 mi SW 3.5 mph - N/A   Overcast
5:35 PM 69.8 °F 66.2 °F 88% 29.75 in 5.0 mi SSW 4.6 mph - N/A   Overcast
5:55 PM 69.8 °F 68.0 °F 94% 29.75 in 5.0 mi SSW 4.6 mph - N/A   Overcast
6:15 PM 69.8 °F 68.0 °F 94% 29.75 in 5.0 mi SW 4.6 mph - N/A   Overcast
6:35 PM 69.8 °F 68.0 °F 94% 29.73 in 5.0 mi West 3.5 mph - N/A   Mostly Cloudy
6:55 PM 69.8 °F 66.2 °F 88% 29.70 in 7.0 mi Calm Calm - N/A   Clear
7:15 PM 71.6 °F 68.0 °F 88% 29.69 in 7.0 mi Calm Calm - N/A   Clear
7:35 PM 71.6 °F 66.2 °F 83% 29.72 in 10.0 mi Calm Calm - N/A   Scattered Clouds
7:55 PM 69.8 °F 66.2 °F 88% 29.73 in 7.0 mi Calm Calm - N/A   Mostly Cloudy
8:15 PM 69.8 °F 66.2 °F 88% 29.74 in 4.0 mi Calm Calm - N/A   Overcast
8:35 PM 68.0 °F 64.4 °F 88% 29.77 in 3.0 mi South 3.5 mph - N/A   Mostly Cloudy
8:55 PM 68.0 °F 64.4 °F 88% 29.77 in 3.0 mi Calm Calm - N/A   Scattered Clouds
9:15 PM 68.0 °F 64.4 °F 88% 29.77 in 2.0 mi Calm Calm - N/A   Clear
9:35 PM 68.0 °F 66.2 °F 94% 29.77 in 3.0 mi Calm Calm - N/A   Scattered Clouds
9:55 PM 68.0 °F 66.2 °F 94% 29.77 in 3.0 mi Calm Calm - N/A   Mostly Cloudy
10:15 PM 68.0 °F 66.2 °F 94% 29.77 in 4.0 mi Calm Calm - N/A   Scattered Clouds
10:35 PM 68.0 °F 64.4 °F 88% 29.79 in 3.0 mi Calm Calm - N/A   Clear
10:55 PM 66.2 °F 64.4 °F 94% 29.80 in 0.5 mi Calm Calm - N/A Fog Fog
11:15 PM 66.2 °F 64.4 °F 94% 29.79 in 0.2 mi SE 3.5 mph - N/A Fog Fog
11:35 PM 66.2 °F 62.6 °F 88% 29.79 in 0.2 mi SE 4.6 mph - N/A Fog Fog
11:55 PM 68.0 °F 64.4 °F 88% 29.79 in 0.2 mi SSE 3.5 mph - N/A Fog Fog